Harlingen, TX

1:58 PM CDT on June 22, 2017 (GMT -0500)
Valley International

Weather History for KHRL - April, 2014

Change the Weather History Date:

Sunday, April 20, 2014

  Actual Average Record
Temperature  
Mean Temperature 75 °F 76 °F  
Max Temperature 83 °F 87 °F 97 °F (1951)
Min Temperature 66 °F 66 °F 46 °F (2013)
Degree Days  
Heating Degree Days 0 0  
Month to date heating degree days 12 7  
Since 1 July heating degree days 930 621  
Cooling Degree Days 10 11  
Month to date cooling degree days 145 195  
Year to date cooling degree days 368 490  
Growing Degree Days 25 (Base 50)    
Moisture  
Dew Point 65 °F    
Average Humidity 73    
Maximum Humidity 90    
Minimum Humidity 55    
Precipitation  
Precipitation 0.00 in 0.05 in 1.04 in (2012)
Month to date precipitation 0.17 1.16  
Year to date precipitation 2.95 4.92  
Sea Level Pressure  
Sea Level Pressure 30.05 in    
Wind  
Wind Speed 13 mph (SE)    
Max Wind Speed 23 mph    
Max Gust Speed 30 mph    
Visibility 10 miles    
Events      
T = Trace of Precipitation, MM = Missing Value Source: NWS Daily Summary

Daily Weather History Graph

Daily Weather History Graph

Search for Another Location

Airport or City:

Trip Planner

Search our weather history database for the weather conditions in past years. The results will help you decide how hot, cold, wet, or windy it might be!

Date:

Astronomy

Apr. 20, 2014 Rise Set
Actual Time 7:02 AM CDT 7:56 PM CDT
Civil Twilight 6:38 AM CDT 8:20 PM CDT
Nautical Twilight 6:10 AM CDT 8:48 PM CDT
Astronomical Twilight 5:41 AM CDT 9:17 PM CDT
Moon 12:26 AM CDT (4/20) 11:35 AM CDT (4/20)
Length of Visible Light 13h 41m
Length of Day
12h 54m
Waning Gibbous, 68% of the Moon is Illuminated
Apr 20
Waning Gibbous
Apr 22
Last Quarter
Apr 29
New
May 6
First Quarter
May 14
Full

Hourly Weather History & Observations

Time (CDT) Temp. Heat Index Dew Point Humidity Pressure Visibility Wind Dir Wind Speed Gust Speed Precip Events Conditions
12:52 AM 69.1 °F - 64.0 °F 84% 30.06 in 10.0 mi ESE 9.2 mph - N/A   Clear
1:52 AM 69.1 °F - 64.9 °F 87% 30.04 in 10.0 mi ESE 9.2 mph - N/A   Clear
2:52 AM 69.1 °F - 64.9 °F 87% 30.03 in 10.0 mi ESE 8.1 mph - N/A   Clear
3:52 AM 68.0 °F - 64.9 °F 90% 30.03 in 10.0 mi ESE 8.1 mph - N/A   Clear
4:52 AM 68.0 °F - 64.9 °F 90% 30.03 in 10.0 mi ESE 5.8 mph - N/A   Clear
5:52 AM 69.1 °F - 66.0 °F 90% 30.04 in 10.0 mi ESE 6.9 mph - N/A   Mostly Cloudy
6:10 AM 69.8 °F - 66.2 °F 88% 30.04 in 10.0 mi ESE 6.9 mph - N/A   Mostly Cloudy
6:47 AM 69.8 °F - 66.2 °F 88% 30.05 in 10.0 mi ESE 8.1 mph - N/A   Overcast
6:52 AM 70.0 °F - 66.0 °F 87% 30.06 in 10.0 mi ESE 6.9 mph - N/A   Overcast
7:47 AM 69.8 °F - 66.2 °F 88% 30.07 in 10.0 mi ESE 6.9 mph - N/A   Overcast
7:52 AM 70.0 °F - 66.9 °F 90% 30.08 in 10.0 mi ESE 8.1 mph - N/A   Overcast
8:52 AM 73.9 °F - 66.9 °F 79% 30.09 in 10.0 mi SE 15.0 mph - N/A   Scattered Clouds
9:52 AM 77.0 °F - 66.0 °F 69% 30.09 in 10.0 mi SE 17.3 mph 25.3 mph N/A   Overcast
10:27 AM 78.8 °F - 64.4 °F 61% 30.09 in 10.0 mi ESE 17.3 mph - N/A   Mostly Cloudy
10:52 AM 78.1 °F - 64.9 °F 64% 30.09 in 10.0 mi SE 16.1 mph - N/A   Overcast
11:52 AM 81.0 °F 82.7 °F 64.9 °F 58% 30.09 in 10.0 mi SE 17.3 mph 26.5 mph N/A   Overcast
12:52 PM 82.4 °F 83.9 °F 64.4 °F 54% 30.07 in 10.0 mi ESE 15.0 mph - N/A   Overcast
1:52 PM 81.0 °F 82.5 °F 64.0 °F 56% 30.06 in 10.0 mi ESE 17.3 mph 23.0 mph N/A   Overcast
2:52 PM 79.0 °F - 64.9 °F 62% 30.04 in 10.0 mi ESE 23.0 mph 28.8 mph N/A   Overcast
3:52 PM 78.1 °F - 64.9 °F 64% 30.04 in 10.0 mi SE 17.3 mph 24.2 mph N/A   Overcast
4:52 PM 77.0 °F - 64.0 °F 64% 30.02 in 10.0 mi ESE 18.4 mph 27.6 mph N/A   Overcast
5:00 PM 77.0 °F - 64.4 °F 65% 30.02 in 10.0 mi SE 18.4 mph - N/A   Overcast
5:52 PM 75.9 °F - 64.0 °F 67% 30.01 in 10.0 mi SE 18.4 mph 26.5 mph N/A   Overcast
6:52 PM 75.0 °F - 64.9 °F 71% 30.01 in 10.0 mi SE 18.4 mph 26.5 mph N/A   Overcast
7:52 PM 73.9 °F - 64.9 °F 73% 30.02 in 10.0 mi SE 17.3 mph 21.9 mph N/A   Overcast
8:12 PM 73.4 °F - 64.4 °F 73% 30.02 in 10.0 mi SE 12.7 mph - N/A   Overcast
8:52 PM 73.0 °F - 64.9 °F 76% 30.03 in 10.0 mi SE 15.0 mph - N/A   Overcast
9:52 PM 73.0 °F - 64.9 °F 76% 30.05 in 10.0 mi SE 12.7 mph - N/A   Overcast
10:52 PM 71.1 °F - 64.9 °F 81% 30.05 in 10.0 mi SE 9.2 mph - N/A   Clear
11:52 PM 68.0 °F - 64.0 °F 87% 30.06 in 10.0 mi SE 4.6 mph - N/A   Clear